Temperature
12 12 12 12 12 12 12 12 11 11 11 11 10 10 10 11 11 11 11 11 11 11 11 11 11 11 11 11 11 11 11 11 11 11 11 10 10 10
12 12 12 12 12 12 11 11 11 11 11 11 11 10 10 10 10 10 10 11 11 11 11 11 11 11 11 11 11 11 11 11 11 11 11 10 10 10
12 12 12 12 12 12 11 11 11 11 11 11 11 10 10 10 10 10 10 11 11 11 10 10 10 11 10 10 10 10 10 10 10 10 10 10 10 10
12 12 12 12 12 11 11 11 11 11 11 11 11 10 10 10 10 10 10 10 10 10 10 10 10 10 10 10 10 10 10 10 10 10 10 10 10 10
12 12 12 12 11 11 11 11 11 11 11 11 10 10 10 10 10 10 10 10 10 10 10 10 10 10 10 10 10 10 10 10 10 10 10 10 10 10
12 12 11 11 11 11 11 11 11 11 11 10 10 10 10 10 10 10 10 10 10 10 10 10 10 10 10 10 10 10 10 10 10 10 10 10 10 9
11 11 11 11 11 11 11 11 11 11 10 10 10 10 10 10 10 9 9 10 10 10 10 10 10 10 10 10 10 10 10 10 10 10 9 9 9 9
11 11 11 11 11 11 11 10 10 10 10 10 10 10 10 9 9 9 9 9 9 9 9 9 9 9 9 9 9 9 9 9 9 9 9 9 9 9
11 11 11 11 11 11 11 10 10 10 10 10 10 10 10 9 9 9 9 9 9 9 9 9 9 9 9 9 9 9 9 9 9 9 9 9 9 9
10 10 10 10 10 10 10 10 10 10 10 10 10 9 9 9 9 9 9 9 9 9 9 9 9 9 9 9 9 9 9 9 9 9 9 9 9 9
10 10 10 10 10 10 10 10 10 10 9 9 9 9 9 9 9 9 9 9 9 9 8 8 9 9 9 9 9 9 9 9 9 9 9 9 9 9
10 10 10 10 10 9 9 9 9 9 9 9 9 9 9 9 9 9 8 8 8 8 8 8 8 8 8 8 8 8 8 8 8 8 8 8 8 8
9 9 9 9 9 9 9 9 9 9 9 9 9 9 9 9 8 8 8 8 8 8 8 8 8 8 8 8 8 8 8 8 8 8 8 8 8 8
9 9 9 9 9 9 9 9 9 9 8 8 8 8 8 8 8 8 8 8 8 8 8 8 8 8 7 7 7 8 8 8 8 8 8 8 8 7
8 8 9 9 9 9 9 8 8 8 8 8 8 8 8 8 8 8 8 8 8 8 7 7 7 7 7 7 7 7 7 7 7 8 8 7 7 7
8 8 8 8 8 8 8 8 8 8 8 8 8 8 7 8 8 7 7 7 7 7 7 7 7 7 7 7 7 7 7 7 7 7 7 7 7 7
7 7 7 7 8 8 8 8 7 7 7 7 7 7 7 7 7 7 7 7 7 7 7 7 7 7 7 7 7 7 7 7 7 7 7 7 7 7
7 7 7 7 7 7 7 7 7 7 7 7 7 7 7 7 7 7 7 7 7 7 7 7 7 7 6 6 6 7 7 6 6 6 6 6 6 6
6 6 6 6 6 6 6 6 6 6 6 6 6 6 6 6 6 6 6 6 6 6 6 6 6 6 6 6 6 6 6 6 6 6 6 6 6 6
6 6 6 6 6 6 6 6 6 6 6 5 5 5 5 5 6 6 6 6 6 6 6 6 6 6 6 6 5 6 6 5 5 5 5 5 5 5
5 5 5 5 5 5 5 5 5 5 5 5 5 5 5 5 5 5 5 5 5 5 5 6 6 5 5 5 5 5 5 5 5 5 5 5 4 5
5 5 5 5 5 5 5 5 5 5 5 5 5 4 4 4 4 5 5 4 5 5 5 5 5 5 5 5 5 5 5 5 5 4 4 4 4 4
4 4 5 5 5 5 4 4 4 4 4 4 4 4 4 4 4 4 4 4 4 4 4 4 4 4 4 4 4 4 4 4 4 4 4 4 4 4
Wind_Speed
2 2 2 1 1 2 2 4 4 1 2 2 2 2 2 2 2 2 1 2 2 2 3 4 4 4 3 3 3 3 4 4 4 4 4 3 4 4
2 2 1 1 1 1 2 2 2 3 2 2 2 2 1 2 2 2 0 1 1 2 2 3 3 3 3 2 3 3 3 3 3 3 3 2 3 3
2 2 2 2 2 1 1 2 2 2 2 2 1 1 0 1 1 2 2 1 0 1 1 2 2 3 3 2 2 1 2 2 2 2 2 1 2 3
3 3 2 2 2 2 2 1 2 2 3 2 1 1 1 1 0 0 1 1 1 1 2 1 1 1 1 1 1 1 1 1 2 2 1 2 2 2
4 4 3 3 2 2 2 2 1 1 2 3 2 1 1 0 1 1 1 1 1 1 2 2 1 0 0 1 1 1 1 1 2 2 2 2 3 3
3 4 4 5 5 4 3 3 3 2 2 2 1 1 1 1 0 1 1 2 2 1 1 1 2 2 2 1 1 2 2 2 2 2 2 2 3 3
2 2 3 4 5 4 4 4 4 3 2 2 2 1 1 1 1 1 1 2 2 1 0 1 1 1 2 3 3 3 3 3 3 3 3 3 3 4
3 2 2 3 3 4 4 5 5 5 4 3 2 3 4 3 2 2 1 0 2 2 1 2 1 2 3 4 4 4 4 4 4 4 4 4 4 4
4 3 2 2 2 2 3 3 3 4 6 5 5 5 5 5 4 3 3 2 3 2 2 2 2 3 4 5 5 5 4 4 5 5 6 6 5 5
3 4 4 3 3 3 3 3 3 3 5 4 5 6 5 5 5 4 4 2 1 1 2 2 2 3 3 5 7 7 6 6 6 6 7 7 6 6
3 3 4 4 4 4 4 3 3 3 4 5 5 5 5 6 4 3 2 1 2 2 2 2 2 2 2 3 6 7 8 8 8 7 7 7 7 7
3 3 4 4 4 5 5 5 4 4 3 3 3 3 4 4 6 5 5 3 1 2 2 2 2 1 2 2 3 4 6 8 8 8 8 8 7 6
3 3 4 5 4 4 4 5 6 4 3 2 2 2 1 2 3 5 5 5 4 3 3 3 2 2 2 2 2 3 4 4 5 6 8 8 8 7
4 4 4 5 4 4 4 4 3 2 2 2 1 2 2 3 3 4 5 5 5 5 5 5 3 3 3 2 3 2 2 4 4 4 5 7 7 8
3 4 4 4 3 3 3 3 2 2 2 2 3 4 4 4 3 2 2 3 3 4 4 5 4 3 3 3 3 2 2 3 4 3 3 4 5 5
3 3 3 2 2 2 2 2 2 3 3 3 4 3 2 2 2 2 2 2 1 2 3 4 6 5 3 3 3 3 3 2 2 3 3 3 5 6
1 1 1 1 1 1 2 2 2 2 2 2 2 2 2 2 2 2 2 2 2 3 3 2 2 3 3 3 3 4 3 3 3 2 2 2 3 6
1 1 2 3 3 3 3 3 2 3 3 3 3 3 3 3 3 2 2 3 4 4 3 2 1 0 1 2 5 4 4 4 3 2 2 3 4 4
2 3 3 4 4 3 3 3 3 3 3 3 3 3 3 3 3 3 3 3 3 4 3 2 2 3 3 5 3 5 4 3 2 2 3 3 4 4
3 4 4 4 4 3 3 3 3 2 2 3 3 3 3 3 3 3 3 4 4 4 3 2 3 4 6 5 3 3 5 4 3 3 3 2 3 4
4 4 4 4 4 4 4 4 3 3 3 3 3 3 3 3 4 4 4 5 4 4 5 5 6 6 3 1 2 3 3 4 5 3 3 2 2 2
5 5 4 4 4 4 4 4 3 4 3 4 4 4 3 4 4 5 4 4 5 5 5 4 2 2 2 4 5 5 3 2 2 3 4 5 3 4
5 5 4 4 5 4 4 4 5 4 4 4 4 4 4 4 4 4 5 5 4 4 4 3 2 2 3 4 5 4 4 3 2 1 2 5 6 7
Wind_Direction
160 146 133 158 152 157 152 156 154 178 270 278 303 324 354 12 29 59 83 76 70 86 75 65 57 53 54 56 67 87 94 90 88 82 78 86 97 89
163 142 137 151 149 149 157 166 156 164 206 244 247 271 331 27 44 55 46 46 57 128 98 86 71 60 57 53 64 86 98 99 99 94 83 85 104 99
175 159 173 158 145 143 150 151 149 144 179 251 253 279 12 7 33 29 10 6 302 189 147 111 90 71 56 53 59 68 98 111 121 105 96 106 119 112
195 173 186 166 154 159 152 161 178 173 168 193 235 259 267 249 198 331 357 4 312 214 199 167 117 76 42 43 32 9 152 152 151 153 151 165 156 149
197 186 190 169 181 189 172 172 184 169 158 170 211 233 265 304 10 337 342 352 332 241 225 224 216 217 313 351 346 308 245 209 190 186 188 197 190 182
199 193 192 188 192 192 185 182 168 146 142 155 185 219 239 275 110 284 319 323 313 279 251 244 237 250 264 274 282 267 253 234 212 203 201 202 197 186
212 209 207 201 198 194 187 180 164 158 159 165 189 216 226 215 222 220 253 296 306 236 307 298 276 269 266 262 259 260 250 238 227 219 216 208 195 189
214 232 232 212 207 199 188 174 168 171 179 183 208 217 228 220 210 208 192 210 275 237 189 273 238 268 261 244 246 253 249 240 232 227 223 216 206 203
212 213 220 228 198 188 192 187 196 199 191 189 202 216 214 212 198 203 209 212 235 227 168 240 247 258 257 250 247 248 254 252 243 233 226 220 214 213
221 207 206 225 209 189 186 194 221 231 226 213 211 219 220 210 201 201 206 217 260 246 179 220 238 249 263 247 247 244 248 253 258 245 228 221 219 221
247 232 217 211 216 192 180 203 236 261 257 246 243 242 245 231 199 147 148 156 254 247 198 201 225 248 262 258 253 248 245 249 253 249 236 227 226 226
261 256 243 226 221 200 192 197 221 243 250 266 267 261 246 232 208 190 188 187 202 238 221 190 206 189 283 271 255 249 246 250 251 243 237 234 228 215
255 253 248 245 233 217 208 203 221 226 215 218 232 249 253 240 221 214 201 192 195 224 213 179 187 185 212 272 289 260 240 240 240 239 238 235 228 214
250 246 246 247 239 231 223 233 234 205 183 198 211 231 235 244 244 234 228 219 217 223 212 184 187 191 190 227 265 287 265 246 231 233 235 240 235 230
257 259 266 250 230 231 251 252 218 194 193 213 225 234 234 235 235 243 252 244 255 261 224 204 193 190 189 206 222 233 263 266 235 234 232 229 228 222
275 292 293 273 230 242 260 255 228 213 211 223 236 241 243 238 229 221 224 227 255 284 270 232 212 193 202 216 209 229 228 237 245 230 230 243 236 227
239 331 326 296 262 272 260 254 252 253 251 239 235 253 253 246 248 233 207 199 217 241 265 276 239 225 214 199 219 237 234 240 239 218 209 246 251 236
186 230 243 238 236 241 251 260 254 245 248 247 240 235 242 245 251 245 216 211 231 241 242 239 195 49 333 291 231 232 236 239 240 215 208 230 263 256
210 232 238 241 242 237 235 241 250 252 239 233 240 245 246 247 246 246 235 230 240 245 243 215 193 194 231 264 267 223 223 235 222 220 224 225 244 256
227 238 241 243 244 242 241 243 248 255 245 240 242 247 248 247 246 247 243 241 245 249 247 226 214 215 225 244 255 257 229 215 209 228 241 246 261 279
236 241 242 244 242 240 241 237 232 234 239 242 245 247 247 248 253 251 247 250 247 245 246 244 239 236 228 198 251 268 273 241 223 217 212 221 261 268
237 240 244 245 241 238 235 231 232 236 236 239 245 245 243 240 246 252 251 249 247 247 254 262 253 210 201 221 243 256 269 286 280 252 239 223 205 218
243 242 243 245 241 236 234 231 229 235 236 235 238 240 239 241 243 244 247 249 253 257 264 270 261 230 229 231 240 246 246 255 262 271 286 281 253 246
Height
1531 1531 1531 1531 1531 1531 1531 1531 1531 1530 1530 1530 1529 1529 1528 1527 1527 1526 1525 1525 1525 1524 1523 1523 1522 1521 1521 1521 1521 1520 1520 1520 1520 1520 1521 1521 1521 1521
1529 1530 1529 1529 1530 1530 1530 1530 1529 1529 1528 1528 1528 1528 1527 1527 1526 1526 1525 1524 1524 1524 1523 1522 1522 1521 1521 1520 1520 1520 1520 1520 1520 1520 1520 1520 1521 1521
1528 1528 1528 1528 1528 1528 1528 1528 1528 1528 1527 1527 1527 1527 1526 1526 1525 1525 1524 1523 1523 1523 1522 1522 1521 1520 1520 1519 1519 1519 1519 1519 1519 1520 1520 1520 1520 1520
1526 1526 1526 1526 1526 1526 1526 1526 1526 1526 1526 1525 1525 1525 1525 1525 1524 1523 1523 1522 1522 1521 1521 1521 1520 1520 1519 1519 1518 1518 1518 1518 1518 1518 1518 1518 1518 1519
1523 1524 1524 1524 1524 1524 1524 1524 1524 1524 1524 1524 1523 1523 1523 1523 1522 1522 1521 1521 1521 1520 1520 1520 1519 1519 1518 1518 1517 1517 1517 1517 1517 1517 1517 1517 1517 1517
1521 1521 1521 1522 1522 1522 1522 1522 1522 1522 1522 1522 1521 1521 1521 1521 1520 1520 1519 1519 1519 1519 1518 1518 1518 1517 1517 1516 1516 1516 1516 1515 1515 1515 1515 1515 1515 1516
1518 1518 1518 1519 1519 1519 1519 1519 1520 1519 1519 1519 1519 1519 1519 1518 1518 1518 1517 1517 1517 1517 1516 1516 1515 1515 1515 1514 1514 1514 1514 1513 1513 1513 1513 1513 1514 1514
1514 1515 1515 1516 1516 1516 1517 1517 1517 1517 1516 1516 1516 1516 1516 1516 1516 1516 1515 1515 1514 1515 1514 1514 1514 1513 1513 1512 1512 1512 1511 1511 1511 1511 1511 1511 1511 1512
1511 1512 1512 1512 1513 1513 1513 1514 1514 1514 1514 1514 1513 1513 1513 1514 1514 1514 1513 1513 1513 1513 1513 1512 1512 1511 1511 1510 1510 1510 1509 1509 1508 1508 1508 1509 1509 1510
1508 1508 1508 1509 1509 1509 1510 1510 1510 1510 1511 1511 1511 1511 1511 1511 1511 1511 1511 1511 1511 1511 1511 1510 1509 1509 1509 1508 1508 1507 1506 1506 1506 1506 1506 1506 1506 1507
1504 1504 1505 1505 1505 1506 1506 1506 1506 1506 1507 1507 1507 1507 1507 1508 1508 1508 1508 1508 1507 1507 1508 1507 1506 1506 1505 1505 1505 1504 1504 1503 1503 1503 1503 1503 1503 1504
1500 1500 1501 1501 1501 1501 1502 1502 1502 1502 1503 1503 1503 1504 1504 1504 1504 1504 1504 1504 1504 1504 1504 1504 1504 1504 1502 1502 1502 1502 1501 1500 1500 1500 1500 1500 1500 1501
1496 1496 1497 1497 1497 1498 1498 1498 1498 1499 1499 1499 1499 1499 1500 1500 1500 1501 1501 1501 1501 1501 1502 1502 1501 1501 1501 1500 1499 1499 1498 1497 1497 1497 1497 1497 1497 1498
1492 1493 1493 1493 1494 1494 1494 1494 1495 1495 1495 1495 1495 1495 1495 1496 1496 1497 1497 1498 1498 1498 1498 1498 1498 1498 1497 1496 1496 1495 1495 1495 1494 1493 1494 1494 1494 1494
1489 1489 1489 1489 1490 1490 1490 1491 1491 1491 1491 1491 1490 1491 1491 1492 1492 1493 1493 1493 1494 1494 1494 1494 1494 1494 1494 1493 1492 1492 1492 1491 1491 1491 1490 1490 1490 1491
1485 1485 1485 1485 1486 1486 1486 1486 1487 1487 1487 1486 1486 1487 1487 1487 1487 1488 1488 1488 1488 1489 1489 1490 1490 1490 1489 1489 1489 1488 1488 1488 1487 1487 1487 1487 1487 1487
1481 1481 1481 1481 1481 1482 1482 1482 1482 1483 1483 1482 1482 1482 1482 1482 1483 1483 1483 1484 1484 1484 1484 1485 1486 1486 1485 1485 1484 1484 1484 1483 1483 1483 1483 1482 1483 1483
1478 1477 1476 1476 1477 1477 1477 1478 1478 1478 1478 1478 1478 1478 1478 1478 1478 1478 1479 1479 1479 1479 1479 1480 1481 1480 1480 1480 1481 1479 1479 1479 1479 1479 1479 1478 1478 1479
1474 1473 1472 1472 1472 1472 1473 1473 1473 1473 1474 1474 1474 1474 1474 1474 1473 1473 1474 1474 1474 1474 1475 1475 1476 1475 1475 1474 1474 1476 1475 1475 1474 1474 1474 1474 1473 1474
1469 1469 1469 1468 1468 1468 1469 1469 1469 1469 1469 1469 1469 1469 1469 1469 1469 1469 1469 1469 1469 1469 1470 1470 1470 1471 1470 1470 1470 1470 1471 1471 1470 1470 1469 1469 1469 1469
1465 1465 1465 1464 1464 1465 1465 1465 1464 1464 1464 1465 1464 1464 1465 1464 1464 1464 1464 1464 1465 1465 1464 1465 1465 1466 1466 1466 1465 1464 1465 1466 1466 1465 1465 1464 1463 1463
1461 1461 1460 1460 1460 1460 1460 1460 1460 1460 1460 1460 1460 1460 1460 1460 1459 1460 1460 1460 1460 1460 1459 1460 1460 1461 1460 1459 1459 1459 1459 1460 1460 1460 1460 1460 1459 1458
1456 1456 1456 1456 1455 1455 1455 1455 1455 1455 1455 1455 1455 1455 1455 1455 1455 1455 1455 1455 1455 1455 1454 1454 1454 1455 1454 1454 1454 1453 1454 1454 1454 1454 1454 1454 1454 1454